Date,TemperatureHighF,TemperatureAvgF,TemperatureLowF,DewpointHighF,DewpointAvgF,DewpointLowF,HumidityHigh,HumidityAvg,HumidityLow,PressureMaxIn,PressureMinIn,WindSpeedMaxMPH,WindSpeedAvgMPH,GustSpeedMaxMPH,PrecipitationSumIn
2013-1-1,30.2,17.0,9.5,26.5,9.9,1.4,93,74,61,29.96,29.68,29,5,29,0.00
2013-1-2,14.3,6.5,-5.7,10.9,1.6,-10.1,89,80,71,30.26,29.89,15,2,19,0.00
2013-1-3,9.3,-0.3,-9.6,4.0,-5.4,-13.4,87,79,62,30.28,29.98,5,0,5,0.00
2013-1-4,30.8,25.5,5.5,25.9,21.0,2.5,93,83,70,29.99,29.78,28,5,28,0.00
2013-1-5,30.7,23.3,13.7,24.8,16.4,10.3,95,75,64,30.25,29.80,38,4,38,0.01
2013-1-6,32.3,24.9,12.8,30.9,22.0,9.6,100,88,83,30.21,29.92,12,1,12,0.00
2013-1-7,31.2,20.3,14.3,29.1,15.2,10.5,93,81,61,30.38,29.97,14,1,14,0.00
2013-1-8,37.7,31.1,24.8,24.0,21.4,18.6,86,67,55,30.39,30.21,22,2,22,0.02
2013-1-9,42.6,30.8,19.4,31.5,23.9,17.5,94,77,53,30.40,29.92,29,4,29,0.15
2013-1-10,38.1,33.0,27.6,30.8,24.8,22.5,84,72,64,30.57,30.01,28,6,40,0.01
2013-1-11,35.0,29.1,22.5,32.8,24.3,20.0,92,83,64,30.57,30.13,16,2,16,0.04
2013-1-12,44.1,36.6,33.3,39.0,34.5,31.9,97,92,82,30.17,30.07,11,0,11,0.05
2013-1-13,54.9,40.4,31.2,50.0,38.7,30.5,98,94,79,30.15,29.91,17,1,17,0.01
2013-1-14,53.2,42.5,31.1,49.5,35.1,22.5,97,76,53,30.28,29.79,20,3,20,0.00
2013-1-15,31.5,28.1,24.2,24.6,20.6,18.4,82,73,63,30.35,30.25,6,1,11,0.00
2013-1-16,30.7,26.7,24.3,27.4,23.7,19.6,95,88,78,30.27,29.79,20,1,20,0.00
2013-1-17,32.4,20.8,6.0,26.4,12.7,-3.4,91,71,53,30.17,29.79,21,2,21,0.00
2013-1-18,18.7,8.4,-0.5,9.4,-4.6,-13.0,67,55,41,30.41,30.14,19,2,19,0.00
2013-1-19,42.6,32.0,18.6,25.4,19.3,7.9,90,61,44,30.28,29.75,23,4,23,0.04
2013-1-20,44.0,32.7,13.5,31.4,19.4,-0.2,92,58,46,29.92,29.40,34,8,34,0.04
2013-1-21,17.0,11.1,3.2,10.2,3.4,-1.2,92,72,46,30.06,29.84,13,1,17,0.00
2013-1-22,13.3,7.3,-1.1,7.8,0.6,-9.9,89,74,52,30.09,29.83,20,2,20,0.00
2013-1-23,-0.5,-5.6,-9.9,-4.6,-13.8,-17.1,92,67,49,30.22,30.08,14,2,14,0.00
2013-1-24,8.3,-1.8,-10.7,-5.7,-11.7,-17.1,75,63,39,30.39,30.19,26,3,26,0.00
2013-1-25,12.1,3.6,-4.5,2.2,-5.5,-9.9,82,66,48,30.41,30.15,8,0,8,0.00
2013-1-26,11.5,6.9,0.5,5.6,-1.0,-8.3,86,71,43,30.33,30.13,27,2,27,0.00
2013-1-27,17.1,9.3,2.0,5.2,-2.0,-7.5,82,61,36,30.55,30.33,23,2,27,0.00
2013-1-28,17.7,11.4,3.5,15.5,6.3,-3.5,91,80,63,30.52,30.08,11,0,11,0.00
2013-1-29,31.2,23.7,16.7,29.0,21.3,14.3,100,91,87,30.24,30.05,15,1,15,0.02
2013-1-30,57.5,44.2,31.1,53.9,42.0,29.0,97,92,84,30.06,29.30,18,2,18,0.38
2013-1-31,51.6,36.3,20.8,50.4,28.2,6.1,98,74,52,29.50,28.81,33,7,33,0.45
2013-2-1,20.8,14.9,9.0,9.4,6.0,2.0,83,68,52,30.13,29.50,28,4,28,0.00
2013-2-2,18.4,12.7,5.5,13.4,6.7,1.8,92,77,60,30.20,30.07,16,1,16,0.00
2013-2-3,26.2,14.9,5.8,14.6,8.8,3.0,91,78,50,30.07,29.77,9,0,9,0.01
2013-2-4,20.7,15.4,5.3,14.1,3.6,-7.3,89,62,30,29.94,29.75,25,4,25,0.00
2013-2-5,22.2,10.5,0.3,5.8,-2.1,-7.7,70,57,35,30.07,29.94,7,0,7,0.00
2013-2-6,26.8,18.2,6.1,21.0,9.3,-6.1,89,68,43,30.38,29.92,18,2,18,0.00
2013-2-7,15.3,8.8,1.2,3.8,-4.5,-8.4,70,55,36,30.60,30.38,9,0,9,0.00
2013-2-8,20.5,16.5,11.6,18.4,13.2,3.1,92,87,66,30.50,29.96,13,1,13,0.00
2013-2-9,16.0,11.1,7.8,13.8,5.2,-0.8,91,77,58,30.37,29.95,21,3,21,0.00
2013-2-10,29.9,15.9,4.8,9.1,3.7,-1.5,76,60,34,30.52,30.33,8,0,8,0.23
2013-2-11,37.7,26.1,13.0,36.7,20.2,6.2,100,79,44,30.34,29.63,17,1,17,0.05
2013-2-12,34.5,32.6,28.7,30.3,27.0,23.9,89,80,73,29.85,29.60,23,4,23,0.02
2013-2-13,34.0,30.0,27.9,24.2,21.6,16.9,83,71,51,29.85,29.77,12,1,12,0.01
2013-2-14,33.3,28.6,25.6,23.7,20.5,18.0,84,72,57,29.98,29.75,11,0,11,0.01
2013-2-15,41.2,34.4,25.7,30.7,24.4,19.2,88,67,49,29.97,29.87,14,3,25,0.01
2013-2-16,30.8,23.5,16.0,24.6,14.1,2.9,92,68,46,29.99,29.90,10,1,10,0.01
2013-2-17,16.0,10.4,7.8,4.7,2.4,0.3,80,70,57,29.91,29.67,30,5,30,0.00
2013-2-18,21.5,12.4,4.1,1.3,-3.1,-8.0,83,53,27,30.20,29.87,25,4,25,0.00
2013-2-19,36.3,24.4,11.3,30.2,12.6,-4.8,95,63,34,30.19,29.63,18,1,18,0.00
2013-2-20,31.2,24.3,19.6,29.9,19.6,13.8,95,83,61,29.77,29.61,20,4,20,0.00
2013-2-21,21.2,14.9,8.4,18.1,11.0,4.8,91,84,75,30.42,29.77,16,2,16,0.00
2013-2-22,31.2,25.7,19.1,23.0,20.0,16.7,91,79,67,30.48,30.27,12,0,12,0.04
2013-2-23,30.4,29.4,28.5,28.4,25.1,19.8,95,84,67,30.28,29.94,14,2,14,0.01
2013-2-24,33.9,30.5,28.3,32.2,28.9,26.2,95,94,89,29.96,29.79,13,0,13,0.10
2013-2-25,33.2,30.4,28.9,30.4,28.4,26.4,95,92,87,30.27,29.96,8,0,8,0.04
2013-2-26,40.7,32.8,28.5,31.4,28.7,26.4,96,85,64,30.36,30.17,18,1,18,0.16
2013-2-27,32.8,31.3,29.0,31.9,29.4,25.9,97,93,79,30.17,29.67,17,1,17,0.00
2013-2-28,39.2,33.2,29.6,37.1,32.1,28.9,97,95,88,29.67,29.59,4,0,4,0.61
2013-3-1,32.7,29.7,27.9,31.9,27.0,25.1,97,90,78,29.77,29.60,20,3,20,0.01
2013-3-2,29.7,26.2,20.9,25.7,23.3,18.7,92,89,79,29.79,29.74,17,2,17,0.00
2013-3-3,29.1,24.1,19.9,24.5,21.2,18.0,93,89,81,29.76,29.69,13,0,13,0.08
2013-3-4,25.7,22.8,20.7,20.3,19.1,18.1,93,85,76,29.91,29.71,18,2,18,0.00
2013-3-5,34.2,28.3,23.2,27.9,24.2,19.8,92,84,76,30.14,29.90,10,0,10,0.07
2013-3-6,37.7,32.8,29.6,29.7,26.6,23.5,93,78,63,30.22,30.12,18,1,18,0.04
2013-3-7,33.2,30.0,27.9,24.7,22.8,20.8,81,74,67,30.21,30.16,11,1,11,0.02
2013-3-8,40.4,30.9,26.3,26.8,24.0,22.3,92,76,55,30.35,30.15,15,1,15,0.02
2013-3-9,48.9,34.7,22.2,24.0,21.5,17.3,90,63,29,30.39,30.31,8,0,8,0.00
2013-3-10,52.4,39.4,26.4,26.5,23.4,20.5,80,55,32,30.37,30.17,16,2,17,0.00
2013-3-11,53.5,44.0,37.0,35.1,28.7,23.5,77,56,31,30.21,29.98,15,2,15,0.00
2013-3-12,46.7,42.7,35.1,45.2,40.4,33.3,97,92,76,30.00,29.71,21,2,21,1.00
2013-3-13,38.3,33.7,29.6,33.6,29.5,24.0,96,85,67,29.82,29.75,15,1,15,0.00
2013-3-14,30.2,21.6,13.7,26.6,15.2,4.8,91,76,62,29.91,29.73,23,4,23,0.01
2013-3-15,32.0,21.6,11.9,25.5,12.3,3.3,93,69,37,29.92,29.62,22,3,22,0.01
2013-3-16,24.6,20.5,15.2,20.1,12.9,8.5,88,73,52,29.94,29.75,22,2,22,0.02
2013-3-17,22.4,16.2,11.0,12.4,6.2,0.4,89,66,42,30.39,29.94,16,2,22,0.00
2013-3-18,32.9,21.2,8.0,18.4,2.8,-1.2,72,47,25,30.49,30.19,15,1,15,0.01
2013-3-19,28.4,26.0,24.0,26.6,24.0,18.6,100,92,73,30.20,29.74,15,2,15,0.00
2013-3-20,29.9,25.3,21.4,26.8,21.9,16.8,95,87,72,29.74,29.67,19,3,19,0.00
2013-3-21,34.7,25.5,20.2,20.0,15.8,12.3,81,68,43,29.75,29.65,15,2,15,0.00
2013-3-22,31.9,24.1,16.1,21.4,17.2,13.1,90,76,55,29.78,29.67,16,2,16,0.00
2013-3-23,31.6,27.8,23.1,24.3,21.7,18.0,92,78,59,29.84,29.68,27,6,28,0.00
2013-3-24,34.7,30.3,25.6,24.8,22.9,20.4,86,74,61,29.90,29.81,23,3,23,0.00
2013-3-25,42.2,32.0,21.6,27.0,23.4,18.8,91,72,44,29.84,29.59,11,0,11,0.08
2013-3-26,40.7,34.4,29.8,27.0,23.6,20.4,88,65,47,29.83,29.64,17,2,17,0.01
2013-3-27,42.4,36.7,33.2,31.1,26.4,21.9,89,67,53,29.95,29.80,18,2,18,0.00
2013-3-28,46.1,38.0,32.5,34.0,31.7,30.0,92,79,58,30.08,29.94,13,1,13,0.01
2013-3-29,43.2,39.2,36.8,34.4,32.0,28.8,88,76,60,30.09,30.03,15,2,15,0.00
2013-3-30,46.3,38.4,31.9,29.3,20.4,12.4,78,52,26,30.12,30.07,18,2,18,0.00
2013-3-31,51.9,39.6,26.8,35.2,22.8,14.4,90,53,32,30.11,29.75,17,2,17,0.02
2013-4-1,43.1,35.6,26.5,38.6,28.4,12.0,96,77,38,29.78,29.52,28,3,28,0.11
2013-4-2,28.6,25.1,21.6,16.9,10.8,6.0,69,54,44,29.91,29.77,27,7,29,0.00
2013-4-3,35.4,28.4,22.3,19.4,10.8,4.4,66,49,29,30.22,29.90,32,9,32,0.00
2013-4-4,47.6,37.1,25.7,20.5,13.8,4.4,56,39,24,30.28,29.92,23,4,23,0.00
2013-4-5,45.2,38.4,27.8,30.8,21.1,15.1,86,51,34,29.96,29.78,17,5,24,0.00
2013-4-6,36.4,27.3,19.9,15.4,7.4,2.5,66,44,24,30.34,29.96,31,5,31,0.00
2013-4-7,53.7,41.4,28.1,36.4,21.7,9.0,61,46,32,30.31,29.86,29,3,29,0.00
2013-4-8,53.2,44.1,37.0,37.6,31.7,27.5,80,63,41,30.15,29.89,19,2,19,0.00
2013-4-9,47.7,42.9,39.7,45.4,38.7,30.6,97,85,64,30.05,29.84,17,2,17,0.22
2013-4-10,45.7,41.4,38.7,43.0,39.8,37.7,97,94,84,30.03,29.93,7,0,7,0.21
2013-4-11,38.8,34.6,30.5,38.0,25.1,17.4,97,70,47,30.23,29.93,12,1,12,0.01
2013-4-12,31.4,29.8,27.9,29.6,25.8,17.9,94,86,58,30.23,29.88,20,2,20,0.00
2013-4-13,46.1,37.1,30.9,36.6,33.1,29.2,100,86,62,29.92,29.81,8,1,10,0.61
2013-4-14,41.7,36.9,32.1,34.8,31.9,28.0,95,82,64,30.25,29.89,19,1,19,0.11
2013-4-15,57.3,42.9,28.1,36.0,30.8,26.0,93,66,39,30.38,30.24,24,1,24,0.00
2013-4-16,57.3,51.3,43.2,52.2,42.9,32.6,95,74,53,30.27,29.93,27,4,27,0.16
2013-4-17,51.4,44.5,37.4,41.8,31.0,25.6,79,60,38,30.38,30.07,20,3,20,0.00
2013-4-18,58.5,45.1,32.7,42.4,32.1,25.4,84,62,44,30.40,29.96,31,3,31,0.01
2013-4-19,73.0,62.3,47.6,59.4,52.5,39.9,95,72,48,29.97,29.46,27,5,27,0.47
2013-4-20,47.2,40.6,31.2,45.3,28.7,17.0,94,64,43,30.27,29.60,31,6,31,0.02
2013-4-21,43.6,33.7,26.5,21.0,15.3,9.9,71,48,27,30.73,30.27,18,3,21,0.00
2013-4-22,53.7,39.5,26.4,25.0,18.0,13.8,71,44,24,30.78,30.58,19,2,19,0.00
2013-4-23,44.7,36.8,29.6,35.2,28.7,24.6,84,73,59,30.60,30.32,18,1,18,0.00
2013-4-24,74.0,61.3,41.0,47.7,41.0,28.2,91,52,20,30.08,29.64,20,2,20,0.00
2013-4-25,63.6,45.6,36.9,51.7,30.3,21.9,85,57,33,30.31,29.63,27,4,27,0.03
2013-4-26,50.7,41.9,32.6,37.3,30.0,23.8,84,63,41,30.48,30.31,12,1,12,0.00
2013-4-27,59.1,46.2,32.5,37.1,29.5,21.7,94,58,24,30.47,30.32,10,0,10,0.00
2013-4-28,71.1,56.0,37.1,36.2,31.3,25.9,68,41,24,30.34,30.14,18,1,18,0.00
2013-4-29,64.0,55.6,45.5,44.2,39.2,35.9,71,55,37,30.20,30.12,11,1,11,0.00
2013-4-30,69.3,58.8,50.0,47.7,43.7,35.2,74,58,41,30.30,30.20,11,0,11,0.00
2013-5-1,77.7,62.5,45.7,41.1,35.2,25.0,72,39,21,30.44,30.29,11,0,11,0.00
2013-5-2,78.8,64.2,52.0,45.9,38.1,28.9,58,39,26,30.42,30.29,13,1,13,0.00
2013-5-3,70.3,56.6,43.4,40.9,35.5,25.9,66,47,29,30.50,30.34,12,1,12,0.00
2013-5-4,75.5,61.0,45.6,45.1,37.9,29.3,82,48,19,30.36,30.17,13,1,13,0.00
2013-5-5,77.2,61.1,44.6,39.3,35.3,30.7,73,42,21,30.25,30.12,9,1,13,0.00
2013-5-6,78.0,62.9,45.2,41.9,31.2,19.2,66,35,12,30.20,30.05,15,0,15,0.00
2013-5-7,81.0,66.8,50.4,47.4,39.3,29.6,73,40,19,30.12,30.02,11,1,11,0.00
2013-5-8,76.2,62.1,52.5,58.0,51.0,37.6,94,69,39,30.16,30.02,14,1,14,0.15
2013-5-9,67.3,59.0,53.5,59.1,55.8,52.1,97,90,63,30.02,29.86,11,0,11,0.30
2013-5-10,71.8,59.9,50.9,58.1,54.7,49.8,98,84,54,29.98,29.81,9,0,9,0.02
2013-5-11,66.2,60.2,51.1,58.8,55.3,46.8,94,84,74,29.81,29.60,16,1,16,0.08
2013-5-12,57.9,50.2,40.5,47.2,38.8,23.5,94,67,33,29.77,29.60,17,2,17,0.00
2013-5-13,45.9,41.3,36.6,33.2,28.3,24.1,76,60,46,30.07,29.74,26,3,26,0.00
2013-5-14,53.9,42.8,33.4,34.4,28.5,21.2,92,61,32,30.12,30.01,22,2,22,0.00
2013-5-15,62.9,46.8,32.6,49.6,36.3,26.7,90,70,34,30.06,29.62,21,1,21,0.08
2013-5-16,71.4,55.3,47.6,48.2,41.6,32.5,94,64,25,29.87,29.60,31,3,31,0.00
2013-5-17,61.9,51.2,43.2,41.4,39.0,36.3,92,65,40,30.24,29.87,20,3,20,0.00
2013-5-18,70.0,56.0,40.3,45.3,37.2,26.9,90,55,21,30.32,30.22,14,0,14,0.00
2013-5-19,67.2,54.6,45.2,54.6,46.9,38.6,96,77,52,30.29,30.11,13,0,13,0.36
2013-5-20,63.9,59.5,53.2,60.1,57.1,51.8,97,92,85,30.11,29.98,12,0,12,0.03
2013-5-21,72.5,62.2,53.2,65.5,58.8,51.8,98,89,68,29.99,29.83,22,1,22,0.59
2013-5-22,78.1,62.3,50.8,67.8,59.3,49.6,98,90,66,29.90,29.76,14,1,15,0.24
2013-5-23,75.2,65.9,58.8,65.1,60.9,58.0,98,85,64,29.77,29.69,16,2,16,0.65
2013-5-24,59.3,47.8,41.5,58.5,46.7,40.6,98,96,91,30.01,29.65,18,1,18,0.55
2013-5-25,41.6,39.0,34.2,41.0,38.2,33.2,98,97,96,30.00,29.89,19,1,19,1.02
2013-5-26,45.2,40.2,36.0,42.0,38.0,35.2,97,92,82,30.11,29.85,27,3,27,0.08
2013-5-27,62.9,50.4,37.3,40.5,36.8,31.7,97,64,35,30.20,30.08,22,2,22,0.00
2013-5-28,71.5,56.8,39.6,46.2,40.7,33.3,91,59,34,30.24,30.11,15,1,15,0.00
2013-5-29,63.6,57.4,51.7,62.9,54.4,44.1,98,90,59,30.12,29.94,17,0,17,0.43
2013-5-30,83.0,71.3,62.2,63.8,61.8,59.4,97,74,50,30.08,29.98,19,2,19,0.00
2013-5-31,87.8,76.7,63.4,66.9,61.9,57.8,86,62,43,30.05,29.88,14,1,14,0.00
2013-6-1,87.8,76.6,65.6,67.5,64.2,60.4,89,67,42,29.92,29.77,17,1,17,0.15
2013-6-2,84.0,69.1,60.2,70.9,64.9,57.9,98,88,55,29.83,29.63,18,1,18,0.49
2013-6-3,67.0,61.8,51.9,58.6,53.0,41.2,92,74,55,29.85,29.74,16,2,16,0.00
2013-6-4,60.6,52.4,46.6,46.4,42.1,38.7,78,68,51,30.12,29.85,19,3,19,0.00
2013-6-5,67.8,56.1,44.5,45.6,40.8,32.5,90,59,28,30.22,30.12,12,0,12,0.00
2013-6-6,66.7,55.0,49.5,51.9,47.1,39.7,96,76,49,30.20,30.09,7,0,7,0.10
2013-6-7,52.9,50.0,47.8,51.8,48.7,46.5,100,95,92,30.09,29.91,15,1,15,0.64
2013-6-8,59.5,54.4,49.6,56.9,53.0,48.8,98,95,87,30.04,29.78,9,0,9,0.20
2013-6-9,71.6,61.5,54.3,56.9,53.7,50.0,97,78,50,30.19,30.03,16,1,16,0.11
2013-6-10,71.0,59.6,50.6,60.5,52.9,47.8,96,80,47,30.21,29.98,12,0,12,0.06
2013-6-11,56.6,54.2,52.7,54.9,53.1,51.6,98,96,92,29.98,29.60,12,1,13,0.07
2013-6-12,65.7,55.6,51.2,55.3,52.2,50.2,98,89,65,29.86,29.61,19,1,19,0.07
2013-6-13,64.7,56.3,49.0,56.5,51.3,47.9,97,84,60,29.84,29.70,5,0,8,0.06
2013-6-14,72.3,61.6,50.8,56.3,51.6,44.9,97,72,49,29.85,29.70,20,2,20,0.04
2013-6-15,71.0,61.4,50.4,48.2,43.3,38.8,77,53,35,29.95,29.84,16,1,16,0.04
2013-6-16,70.1,60.9,54.4,57.9,52.4,44.6,95,75,55,29.91,29.68,13,1,13,0.02
2013-6-17,72.5,61.8,53.7,62.3,56.4,52.3,97,84,53,29.93,29.75,13,1,13,0.02
2013-6-18,67.0,56.3,49.0,53.2,49.1,42.8,97,79,47,29.99,29.91,8,0,8,0.02
2013-6-19,66.9,57.9,46.1,48.1,43.7,37.7,86,61,41,30.19,29.99,15,1,15,0.00
2013-6-20,74.3,59.5,43.6,49.9,45.3,39.4,94,64,31,30.27,30.19,10,0,10,0.01
2013-6-21,79.5,65.5,50.7,56.0,51.4,46.8,89,64,36,30.25,30.20,10,0,10,0.01
2013-6-22,79.8,65.9,59.2,66.2,59.7,53.5,97,82,51,30.21,30.10,8,0,8,0.00
2013-6-23,83.5,70.9,61.9,72.3,66.9,61.0,98,88,66,30.10,29.94,14,0,14,0.02
2013-6-24,85.5,73.7,63.8,71.2,67.0,62.6,96,80,60,29.97,29.86,15,1,15,0.00
2013-6-25,84.6,70.5,62.9,71.1,66.4,61.8,98,88,59,29.90,29.73,26,0,26,0.01
2013-6-26,75.0,66.6,63.4,68.6,65.1,62.8,99,95,77,29.81,29.73,6,0,6,0.01
2013-6-27,81.0,70.6,61.6,70.2,66.0,60.7,100,86,63,29.80,29.70,11,0,14,0.01
2013-6-28,75.7,65.3,59.8,68.1,62.7,58.3,97,92,69,29.71,29.41,18,1,18,0.01
2013-6-29,78.3,67.2,60.7,67.6,63.0,60.1,98,88,59,29.67,29.48,14,0,14,0.00
2013-6-30,81.3,70.1,61.5,68.4,63.7,60.4,100,82,52,29.92,29.66,10,0,10,0.01
2013-7-1,69.2,65.7,58.7,67.0,64.4,57.8,98,96,90,30.09,29.90,6,0,6,0.01
2013-7-2,81.8,67.1,58.6,72.8,65.0,57.8,99,94,70,30.13,30.06,9,0,9,0.00
2013-7-3,84.0,71.1,65.5,73.7,68.7,64.9,99,93,66,30.16,30.10,10,0,10,0.01
2013-7-4,85.0,73.2,67.8,74.5,70.2,67.2,99,91,62,30.17,30.06,14,0,14,0.01
2013-7-5,85.5,73.5,66.1,74.4,69.3,65.0,98,87,60,30.13,30.02,10,0,10,0.00
2013-7-6,81.5,74.1,68.5,69.3,66.3,61.7,93,78,52,30.06,29.98,16,1,16,0.00
2013-7-7,84.5,72.8,66.8,70.3,64.6,57.6,94,76,51,30.02,29.90,7,0,7,0.00
2013-7-8,77.5,69.8,66.3,71.6,68.1,65.4,98,95,79,30.04,29.92,1,0,6,0.00
2013-7-9,81.2,71.1,65.8,73.6,68.4,65.2,99,92,71,30.07,29.98,8,0,8,0.01
2013-7-10,75.5,70.8,67.5,71.8,68.2,66.0,97,92,84,30.00,29.72,12,1,12,0.00
2013-7-11,76.6,69.7,60.1,70.0,63.5,57.0,97,82,59,30.01,29.71,14,1,16,0.00
2013-7-12,79.6,67.1,56.1,64.1,57.8,53.4,96,75,43,30.21,30.01,7,0,7,0.00
2013-7-13,78.6,68.1,57.6,67.0,61.8,56.2,96,81,62,30.30,30.21,7,0,7,0.67
2013-7-14,85.5,74.7,65.7,71.3,68.0,63.9,96,81,58,30.30,30.21,7,0,7,0.00
2013-7-15,86.7,77.0,68.2,71.0,66.7,61.1,97,73,43,30.22,30.13,14,1,15,0.00
2013-7-16,85.8,77.1,68.5,69.3,66.2,63.8,87,70,53,30.20,30.15,13,1,13,0.00
2013-7-17,89.3,76.1,65.9,72.9,68.0,62.8,96,78,48,30.18,29.96,13,0,13,0.09
2013-7-18,86.6,74.5,67.6,73.3,69.5,66.4,97,86,58,30.02,29.91,12,0,12,0.10
2013-7-19,88.3,77.9,68.5,74.4,70.4,65.0,98,79,58,29.92,29.63,35,2,35,0.02
2013-7-20,79.2,73.2,65.9,69.5,63.5,55.6,92,72,50,29.82,29.61,18,2,18,0.14
2013-7-21,75.8,66.2,58.4,59.4,56.9,53.5,92,73,50,30.03,29.81,10,0,10,0.00
2013-7-22,79.5,66.1,53.7,67.6,59.5,51.4,94,80,60,30.04,29.86,11,0,11,0.00
2013-7-23,76.8,68.3,63.8,69.7,65.6,62.9,98,91,73,29.86,29.54,7,0,7,1.52
2013-7-24,66.4,60.2,51.3,64.8,56.7,46.8,97,88,75,30.05,29.56,17,1,17,0.21
2013-7-25,71.3,57.5,44.9,57.5,49.9,43.6,97,78,52,30.16,30.05,9,0,9,0.00
2013-7-26,69.5,61.1,53.2,61.1,56.0,50.9,94,84,70,30.13,30.02,10,0,10,0.00
2013-7-27,81.2,65.8,52.6,62.1,57.0,51.5,97,76,43,30.07,29.96,7,0,7,0.00
2013-7-28,74.5,66.6,59.6,65.8,62.1,57.4,96,86,71,29.99,29.90,13,0,13,0.27
2013-7-29,77.0,68.0,59.7,66.2,60.7,51.7,98,80,46,30.08,29.93,14,0,15,0.12
2013-7-30,72.0,64.0,56.4,58.1,55.3,51.8,94,75,54,30.12,30.06,11,1,11,0.01
2013-7-31,78.0,66.8,56.1,61.5,56.6,49.4,95,72,40,30.14,30.01,7,0,7,0.00
2013-8-1,76.4,64.7,57.3,63.4,59.9,55.1,95,85,63,30.01,29.81,14,0,16,0.06
2013-8-2,74.9,65.4,57.9,63.7,58.5,52.8,98,81,50,29.84,29.78,8,0,13,0.21
2013-8-3,70.3,62.6,57.0,59.3,56.2,53.3,97,81,59,29.85,29.75,13,1,13,0.14
2013-8-4,67.7,59.3,54.2,58.8,54.9,52.1,100,86,61,29.94,29.81,22,1,22,0.26
2013-8-5,66.7,57.5,50.4,53.2,45.7,31.6,96,68,32,30.07,29.93,21,3,21,0.02
2013-8-6,74.2,60.8,48.7,57.6,51.5,46.6,95,74,46,30.14,30.06,8,0,8,0.00
2013-8-7,76.5,64.5,54.0,62.6,56.7,51.7,95,77,57,30.15,30.00,13,0,13,0.00
2013-8-8,80.4,70.5,64.9,68.7,64.3,57.9,95,81,63,30.01,29.94,14,1,14,0.02
2013-8-9,73.8,68.3,65.7,70.5,67.0,63.7,98,96,84,29.95,29.76,6,0,6,1.09
2013-8-10,69.7,64.7,57.3,65.8,54.0,47.6,97,69,47,30.02,29.78,18,2,18,0.01
2013-8-11,73.0,63.7,54.6,57.0,52.2,46.9,88,67,46,30.08,29.99,13,0,13,0.00
2013-8-12,74.6,64.0,53.9,60.8,55.5,50.7,91,75,48,30.02,29.90,12,0,12,0.00
2013-8-13,72.0,62.6,57.5,65.2,59.6,55.8,97,90,74,29.90,29.67,10,0,10,0.09
2013-8-14,62.1,57.5,52.6,59.2,52.6,47.8,95,84,70,29.97,29.67,17,1,19,0.09
2013-8-15,69.5,59.3,50.5,54.5,49.8,46.5,92,72,50,30.10,29.97,13,0,13,0.00
2013-8-16,73.5,61.7,50.6,59.7,52.9,47.6,92,75,50,30.22,30.09,10,0,10,0.00
2013-8-17,74.3,62.4,53.1,60.2,55.4,52.0,97,80,54,30.30,30.21,14,0,14,0.00
2013-8-18,75.5,63.2,52.7,62.3,55.5,51.3,97,78,48,30.29,30.08,9,0,9,0.00
2013-8-19,77.2,67.1,56.9,62.2,57.9,54.0,93,74,53,30.09,29.97,14,1,14,0.00
2013-8-20,79.2,68.8,58.8,64.3,59.6,56.5,94,74,50,30.09,30.00,13,0,13,0.00
2013-8-21,83.0,71.3,60.6,66.7,62.2,57.8,92,74,47,30.14,29.99,10,0,10,0.00
2013-8-22,83.0,72.0,64.7,66.5,63.0,60.0,96,75,52,30.00,29.80,18,1,18,0.38
2013-8-23,67.8,65.4,58.9,54.1,51.9,49.5,74,62,56,30.12,30.03,17,4,17,0.00
2013-8-27,70.8,68.4,66.5,66.7,65.7,64.6,95,91,87,29.90,29.87,1,0,1,0.00
2013-8-28,82.2,70.6,63.0,69.9,66.0,62.1,98,87,62,29.97,29.85,9,0,9,0.00
2013-8-29,77.1,67.4,60.7,66.0,62.7,59.4,98,86,63,30.06,29.95,8,0,8,0.00
2013-8-30,81.2,69.9,58.9,69.0,63.6,58.0,98,82,57,30.00,29.76,10,0,10,0.00
2013-8-31,72.0,68.9,66.5,68.3,65.9,62.9,98,90,75,29.79,29.74,8,0,8,0.22
2013-9-1,79.2,70.4,64.0,69.2,66.6,63.4,98,89,65,29.87,29.78,6,0,6,0.01
2013-9-2,78.8,69.8,61.2,69.7,66.6,60.2,97,90,72,29.84,29.67,13,0,13,0.13
2013-9-3,73.5,64.1,59.2,62.1,59.4,56.1,98,86,61,29.81,29.68,11,0,11,0.01
2013-9-4,69.4,62.4,56.7,58.5,56.3,51.6,98,81,61,29.92,29.80,11,1,11,0.11
2013-9-5,59.2,53.7,45.8,56.5,45.3,36.7,97,75,49,30.18,29.88,17,2,17,0.06
2013-9-6,63.7,52.5,40.2,46.2,41.1,35.9,99,68,41,30.28,30.07,11,1,11,0.00
2013-9-7,68.8,59.6,51.1,53.2,48.1,44.6,88,67,44,30.08,29.83,11,0,11,0.00
2013-9-8,59.8,53.5,46.0,54.0,45.0,38.3,95,74,56,30.11,29.76,28,3,28,0.10
2013-9-9,67.0,53.7,40.8,49.6,42.3,38.1,94,68,37,30.22,30.07,11,0,11,0.00
2013-9-10,73.7,64.8,57.0,68.9,61.2,50.1,97,88,70,30.09,29.98,10,0,19,0.75
2013-9-11,79.3,72.4,69.1,72.8,69.4,64.0,96,90,76,30.01,29.88,20,2,20,0.46
2013-9-12,78.9,68.6,64.4,69.7,65.6,63.3,98,91,70,29.90,29.61,11,0,11,0.57
2013-9-13,64.4,56.5,51.4,63.8,55.1,48.6,98,95,91,29.85,29.60,15,1,15,0.69
2013-9-14,58.2,51.0,46.4,50.2,47.8,44.7,96,89,70,30.09,29.83,14,1,14,0.00
2013-9-15,66.0,53.2,42.2,52.6,47.4,41.1,97,82,52,30.16,30.03,16,0,16,0.01
2013-9-16,54.9,47.5,37.6,50.8,43.8,34.5,97,87,65,30.34,30.02,18,1,18,0.17
2013-9-17,60.7,46.4,35.4,47.1,39.6,33.8,96,79,50,30.50,30.34,9,0,9,0.00
2013-9-18,70.8,52.9,40.0,49.8,43.9,38.7,100,75,37,30.35,30.15,7,0,7,0.00
2013-9-19,75.0,57.7,44.8,56.3,49.6,43.7,97,77,40,30.16,30.05,8,0,8,0.00
2013-9-20,78.3,62.1,48.4,61.0,53.2,46.8,100,75,48,30.11,29.92,12,0,12,0.00
2013-9-21,73.0,64.0,58.1,60.1,55.5,48.4,90,75,43,29.93,29.57,17,2,17,0.02
2013-9-22,61.5,53.2,44.7,59.4,49.9,40.5,97,89,75,29.89,29.54,18,2,18,0.58
2013-9-23,46.4,44.0,40.4,41.0,38.8,36.6,90,82,77,30.07,29.88,19,2,19,0.00
2013-9-24,57.4,48.7,42.9,45.4,40.8,37.7,85,75,54,30.06,29.93,17,2,17,0.00
2013-9-25,60.4,51.1,44.7,49.7,45.7,42.2,94,82,65,30.04,29.94,15,1,15,0.00
2013-9-26,59.7,50.5,43.3,49.0,46.0,41.3,96,85,65,30.20,30.04,11,0,11,0.00
2013-9-27,62.9,53.6,49.7,53.4,49.3,47.3,96,86,63,30.31,30.19,6,0,6,0.00
2013-9-28,70.6,55.8,45.2,55.5,49.2,44.0,98,81,45,30.39,30.26,6,0,6,0.00
2013-9-29,72.7,55.9,44.3,57.2,49.5,43.1,98,82,44,30.26,30.08,8,0,8,0.01
2013-9-30,70.0,55.4,43.3,54.4,48.4,42.1,98,80,43,30.11,29.99,7,0,7,0.01
2013-10-1,71.3,57.9,45.7,58.9,52.4,44.6,98,83,55,30.01,29.89,8,0,8,0.00
2013-10-2,73.0,62.4,51.3,59.9,54.1,49.0,97,76,53,29.97,29.83,16,1,16,0.00
2013-10-3,70.0,59.3,51.8,52.0,46.8,42.8,87,64,42,30.09,29.96,10,0,13,0.00
2013-10-4,62.7,53.8,45.2,54.7,49.4,43.6,95,85,67,30.13,30.06,2,0,5,0.01
2013-10-5,61.0,54.5,47.9,53.5,49.4,43.4,95,83,69,30.17,30.09,5,0,5,0.03
2013-10-6,52.9,49.4,46.9,48.5,44.5,40.7,96,84,68,30.19,30.08,16,1,16,0.33
2013-10-7,64.7,56.1,50.0,62.9,53.5,45.4,96,91,73,30.08,29.60,24,3,24,0.53
2013-10-8,55.2,48.9,40.2,46.4,38.8,34.4,87,69,47,30.41,29.89,21,2,21,0.00
2013-10-9,63.3,47.4,35.3,43.6,38.2,34.0,96,74,41,30.50,30.37,9,0,9,0.00
2013-10-10,65.1,50.1,38.2,47.3,40.8,35.7,94,72,41,30.37,30.21,5,0,5,0.00
2013-10-11,70.9,56.2,45.3,47.0,41.7,32.3,86,61,26,30.21,30.14,5,0,5,0.00
2013-10-12,69.4,55.1,45.8,53.3,47.1,40.2,90,75,53,30.37,30.19,8,1,11,0.00
2013-10-13,65.6,54.7,47.7,48.3,46.7,44.9,94,76,52,30.41,30.32,9,1,14,0.00
2013-10-14,55.0,49.7,43.9,53.3,48.4,42.7,98,95,90,30.33,30.25,4,0,4,0.05
2013-10-15,63.6,54.6,48.9,56.0,52.3,48.4,98,92,74,30.30,30.12,13,0,13,0.01
2013-10-16,61.8,56.7,52.7,53.3,50.3,48.5,92,80,62,30.12,29.81,8,1,14,0.01
2013-10-17,65.5,56.9,49.9,54.5,49.7,45.4,93,78,55,29.83,29.68,14,1,14,0.18
2013-10-18,58.9,51.5,47.4,50.3,45.2,34.8,97,80,57,29.89,29.61,16,2,16,0.60
2013-10-19,60.2,51.3,43.2,44.7,41.4,36.8,90,70,49,29.92,29.65,10,1,10,0.05
2013-10-20,52.4,48.2,43.3,45.8,37.4,30.8,91,67,45,30.00,29.63,24,4,24,0.01
2013-10-21,59.8,49.1,37.1,43.0,38.4,34.7,93,68,48,30.08,29.89,14,1,14,0.00
2013-10-22,55.2,49.0,39.6,46.2,37.7,26.5,86,65,52,29.89,29.67,21,3,21,0.02
2013-10-23,48.2,41.1,36.8,33.4,31.0,27.8,85,68,48,29.77,29.63,11,1,11,0.00
2013-10-24,41.6,36.6,32.1,34.6,30.3,22.9,94,79,60,29.90,29.68,19,3,19,0.10
2013-10-25,40.1,36.1,33.2,32.7,27.8,25.3,92,72,57,30.15,29.89,19,3,19,0.00
2013-10-26,43.4,36.9,30.0,34.0,30.3,26.0,89,77,54,30.14,29.81,19,2,19,0.04
2013-10-27,43.1,40.5,37.9,35.8,31.2,27.2,87,70,57,30.03,29.75,22,3,22,0.00
2013-10-28,43.4,37.4,29.7,36.9,28.5,19.0,90,70,50,30.40,30.00,25,3,25,0.02
2013-10-29,41.2,30.8,22.6,26.5,20.7,13.4,89,68,33,30.49,30.38,8,0,8,0.00
2013-10-30,41.2,34.5,28.3,33.7,28.6,19.4,91,79,65,30.38,30.22,5,0,5,0.01
2013-10-31,58.6,43.5,33.8,55.6,41.4,31.7,99,92,87,30.26,29.64,21,1,21,0.58
2013-11-1,65.0,59.9,51.9,59.1,53.1,41.0,93,79,47,29.64,29.23,43,6,43,0.51
2013-11-2,53.2,46.0,34.2,44.7,40.4,32.9,95,82,66,29.87,29.58,18,1,18,0.08
2013-11-3,34.5,29.6,24.8,33.4,20.7,14.7,96,70,47,30.52,29.87,19,2,19,0.00
2013-11-4,37.0,27.2,19.8,17.9,16.2,15.1,82,64,42,30.74,30.52,7,0,7,0.00
2013-11-5,48.9,38.1,25.0,34.1,24.7,14.8,76,59,43,30.72,30.45,13,1,13,0.00
2013-11-6,58.0,48.3,36.6,45.3,38.6,30.4,83,70,50,30.45,29.88,18,2,18,0.00
2013-11-7,56.7,45.1,32.5,50.8,40.5,23.6,94,84,68,29.88,29.71,23,3,23,0.36
2013-11-8,35.4,32.9,31.2,28.2,24.4,21.8,84,71,63,30.11,29.82,26,4,26,0.00
2013-11-9,38.4,33.7,30.3,29.8,23.3,20.2,89,66,51,30.21,29.96,21,3,21,0.00
2013-11-10,42.3,36.4,31.8,36.9,33.7,29.7,96,90,78,29.96,29.70,15,3,19,0.28
2013-11-11,39.0,34.5,30.0,33.6,29.3,26.6,96,82,66,30.11,29.84,21,4,21,0.04
2013-11-12,30.9,24.1,21.1,28.9,18.3,13.8,93,78,71,30.28,29.91,22,4,22,0.00
2013-11-13,29.7,23.2,17.4,21.8,14.8,10.0,86,71,52,30.34,30.06,17,3,17,0.00
2013-11-14,40.9,35.2,29.6,29.9,25.0,19.8,74,66,50,30.07,30.03,16,2,16,0.00
2013-11-15,52.6,43.1,36.3,25.9,20.2,18.0,55,40,27,30.19,30.07,12,0,13,0.00
2013-11-16,55.4,44.3,35.7,30.0,25.8,20.8,69,49,29,30.29,30.17,12,0,12,0.00
2013-11-17,48.2,42.6,35.1,47.1,38.5,28.5,96,85,66,30.27,29.73,18,2,18,0.08
2013-11-18,55.7,48.6,37.7,53.7,40.0,29.3,96,73,48,29.74,29.39,28,6,28,0.40
2013-11-19,37.7,28.6,24.5,30.4,19.4,15.0,86,68,58,30.39,29.61,30,7,30,0.00
2013-11-20,33.9,25.9,21.5,18.7,17.2,15.6,81,70,48,30.69,30.38,17,1,17,0.00
2013-11-21,41.4,30.1,17.2,28.0,18.5,8.5,88,65,27,30.68,30.37,13,0,13,0.00
2013-11-22,41.6,34.6,32.3,39.6,32.0,26.0,97,90,72,30.37,29.82,16,0,16,0.10
2013-11-23,41.2,27.9,17.0,37.6,22.2,12.5,92,79,66,29.97,29.75,29,4,29,0.02
2013-11-24,17.0,13.5,10.7,13.2,6.7,-2.2,90,75,56,30.28,29.84,25,7,32,0.00
2013-11-25,30.1,18.2,8.5,15.8,3.9,-6.9,66,54,34,30.43,30.18,21,2,21,0.00
2013-11-26,33.2,30.0,27.9,27.5,22.0,10.6,93,73,44,30.28,30.03,22,2,22,0.00
2013-11-27,37.9,32.2,27.2,37.1,31.0,24.2,97,95,90,30.04,29.37,13,1,13,0.94
2013-11-28,27.0,18.2,14.3,24.7,11.9,7.1,93,76,59,30.45,29.50,22,4,22,0.00
2013-11-29,22.5,15.0,9.7,10.9,8.4,5.8,85,75,55,30.81,30.45,10,0,10,0.03
2013-11-30,25.2,15.4,4.7,15.1,7.6,1.6,89,73,54,30.83,30.38,15,1,15,0.00
2013-12-1,33.4,30.4,24.9,29.0,25.3,13.4,95,82,61,30.38,30.08,17,1,17,0.00
2013-12-2,34.0,30.6,26.9,32.9,29.6,25.6,97,96,95,30.08,29.93,4,0,4,0.00
2013-12-3,32.9,30.6,28.2,32.1,29.4,24.9,97,95,80,30.02,29.94,13,0,13,0.01
2013-12-4,36.9,30.3,26.2,27.5,25.4,22.6,92,82,66,30.20,30.01,11,0,11,0.00
2013-12-5,53.7,37.7,26.8,50.9,35.2,24.1,98,91,80,30.19,29.86,18,2,18,0.07
2013-12-6,51.6,35.9,30.8,50.2,32.7,23.3,97,88,72,30.14,29.88,17,1,17,0.32
2013-12-7,30.7,25.8,20.8,25.7,17.2,12.8,82,70,57,30.48,30.10,17,2,17,0.00
2013-12-8,24.6,21.1,18.2,14.8,11.6,9.1,77,66,56,30.61,30.47,9,1,12,0.00
2013-12-9,36.2,26.8,20.3,33.1,22.6,11.8,96,84,65,30.50,29.87,16,2,16,0.00
2013-12-10,34.2,26.6,19.9,27.8,17.9,7.3,85,70,57,29.94,29.78,20,4,20,0.00
2013-12-11,22.7,18.6,12.8,17.8,12.2,5.5,92,76,57,30.19,29.93,17,3,17,0.00
2013-12-12,14.3,10.3,3.2,9.8,3.4,-1.8,88,74,54,30.32,29.98,22,2,22,0.00
2013-12-13,14.8,9.4,-1.4,11.3,4.4,-6.1,89,80,73,30.46,29.92,17,3,17,0.00
2013-12-14,6.8,0.7,-6.0,4.0,-4.1,-9.7,92,80,66,30.68,30.25,10,0,10,0.00
2013-12-15,21.6,15.8,6.8,19.0,13.4,3.8,100,90,87,30.26,29.59,12,1,12,0.00
2013-12-16,12.8,4.0,-2.8,3.6,-2.7,-7.2,82,74,63,30.27,30.00,17,3,17,0.00
2013-12-17,10.4,0.7,-10.0,7.5,-3.1,-14.1,88,84,78,30.32,30.10,12,0,12,0.00
2013-12-18,25.6,17.2,7.7,20.5,13.6,4.9,92,86,78,30.10,29.98,11,1,11,0.00
2013-12-19,34.0,29.4,24.4,28.2,23.5,19.6,91,79,66,30.10,29.92,8,1,12,0.00
2013-12-20,41.1,33.5,30.6,39.7,31.1,27.1,97,91,84,30.10,29.88,10,0,10,0.29
2013-12-21,52.2,44.2,31.8,49.0,42.4,31.0,98,94,86,29.91,29.77,20,2,20,0.90
2013-12-22,54.4,36.0,31.2,52.7,35.1,30.4,98,97,79,29.97,29.67,12,1,12,0.56
2013-12-23,40.7,35.5,27.1,40.2,34.3,21.0,98,95,79,30.15,29.95,19,1,19,0.18
2013-12-24,27.0,16.7,4.5,21.2,12.3,0.7,94,83,68,30.33,30.12,12,1,12,0.00
2013-12-25,14.4,7.2,-0.4,5.8,1.2,-4.0,86,76,63,30.59,30.33,9,1,12,0.00
2013-12-26,24.7,20.0,14.1,22.3,16.2,5.1,93,85,68,30.46,30.13,14,1,14,0.00
2013-12-27,27.4,24.4,22.0,21.9,19.7,16.9,91,82,68,30.23,30.15,15,2,15,0.02
2013-12-28,36.9,32.9,23.1,31.8,27.4,18.1,89,80,74,30.15,29.98,20,3,20,0.00
2013-12-29,43.1,35.1,30.9,35.8,31.2,28.6,96,86,58,30.00,29.58,11,0,11,0.27
2013-12-30,36.2,19.0,3.0,34.1,13.9,-4.0,97,80,61,30.21,29.57,24,3,24,0.08
2013-12-31,14.8,7.2,1.3,11.2,2.9,-4.1,91,82,72,30.21,30.05,16,1,16,0.00
2014-1-1,13.9,9.1,-1.7,11.1,2.5,-8.5,92,74,61,30.46,30.17,23,2,23,0.00
2014-1-2,1.5,-1.8,-4.2,-2.0,-6.0,-10.0,86,82,70,30.45,30.05,5,0,5,0.00